Regional Weather Roundup
Issued by NWS San Angelo, TX

Home | Current Version | Previous Version | Text Only | Print | Product List | Glossary On
Versions: 1 2 3 4 5 6 7 8 9 10 11 12 13 14 15 16 17 18 19 20 21 22 23 24 25 26 27 28 29 30 31 32 33 34 35 36 37 38 39 40 41 42 43 44 45 46 47 48 49 50
000
ASUS44 KSJT 012310
RWRSJT
WEST CENTRAL TEXAS REGIONAL WEATHER ROUNDUP
NATIONAL WEATHER SERVICE SAN ANGELO TX
600 PM CDT FRI AUG 01 2014

NOTE: "FAIR" INDICATES FEW OR NO CLOUDS BELOW 12,000 FEET WITH NO
SIGNIFICANT WEATHER AND/OR OBSTRUCTIONS TO VISIBILITY.

TXZ049-054-064>066-071>073-076>078-098-099-113-114-127-128-139-140-
154-155-168>170-020000
...LOCATIONS ACROSS WEST CENTRAL TEXAS...

CITY           SKY/WX    TMP DP  RH WIND       PRES   REMARKS
SAN ANGELO     CLOUDY    87  55  33 NE10      30.02F
ABILENE        SUNNY     89  56  32 N8        30.04F
DYESS AFB      SUNNY     87  56  35 N8        30.03F
JUNCTION       MOSUNNY   90  59  35 E9G20     30.00F
SWEETWATER     NOT AVBL
BROWNWOOD      MOSUNNY   86  57  37 N9        30.02S
COLEMAN        NOT AVBL
SONORA         NOT AVBL
OZONA          NOT AVBL
BRADY          NOT AVBL
$$

TEXAS PANHANDLE/OKLAHOMA PANHANDLE

CITY           SKY/WX    TMP DP  RH WIND       PRES   REMARKS
AMARILLO       MOSUNNY   84  50  30 E12G18    30.15F
BORGER         MOSUNNY   85  49  28 E10       30.12F
CANADIAN       NOT AVBL
DALHART        CLOUDY    82  49  31 E10       30.18F
DUMAS          NOT AVBL
GUYMON         NOT AVBL
HEREFORD       NOT AVBL
PAMPA          NOT AVBL
PERRYTON       NOT AVBL
$$

SOUTHERN PANHANDLE/SOUTH PLAINS/ROLLING PLAINS

CITY           SKY/WX    TMP DP  RH WIND       PRES   REMARKS
LUBBOCK        CLOUDY    79  48  33 NE7       30.13F
SNYDER         NOT AVBL
CHILDRESS      MOSUNNY   84  57  39 E7        30.08F
SEMINOLE       NOT AVBL
$$

PERMIAN BASIN

CITY           SKY/WX    TMP DP  RH WIND       PRES   REMARKS
MIDLAND        PTSUNNY   83  56  39 E7        30.09F
ODESSA         PTSUNNY   83  54  36 E12       30.11F
WINK           PTSUNNY   84  58  40 VRB7      30.08F
$$

FAR WEST/SOUTHWEST MOUNTAINS/TRANS PECOS

CITY           SKY/WX    TMP DP  RH WIND       PRES   REMARKS
ALPINE         NOT AVBL
DRYDEN           N/A     89  62  40 SE10      30.02F
EL PASO        LGT RAIN  71  65  81 CALM      30.12F
FORT STOCKTON  PTSUNNY   81  55  40 E12       30.11F
GUADALUPE PASS CLOUDY    68  61  78 NE21      30.24F
MARFA          CLOUDY    70  63  78 NW16      30.22R
PECOS          PTCLDY    86  56  35 E12G17    30.07F
$$

DALLAS/FORT WORTH METROPLEX

CITY           SKY/WX    TMP DP  RH WIND       PRES   REMARKS
DFW AIRPORT    PTSUNNY   82  65  56 N14       30.02F
FTW MEACHAM    PTSUNNY   84  65  52 E10       30.01F
DAL-EXECUTIVE  MOSUNNY   81  65  58 NE8       30.02F
GRAND PRAIRIE  MOSUNNY   81  64  57 N7        30.05S
ADDISON        PTSUNNY   77  66  69 NE6       30.04S
MESQUITE       CLOUDY    75  66  73 N6        30.03S
LANCASTER      NOT AVBL
$$

NORTH CENTRAL TEXAS

CITY           SKY/WX    TMP DP  RH WIND       PRES   REMARKS
SHRMAN/DENISON NOT AVBL
GAINESVILLE    NOT AVBL
BRIDGEPORT     NOT AVBL
DENTON         CLOUDY    80  66  62 NE10      30.03S
WAXAHACHIE     NOT AVBL
GRANBURY       NOT AVBL
$$

WESTERN NORTH TEXAS

CITY           SKY/WX    TMP DP  RH WIND       PRES   REMARKS
WICHITA FALLS  MOSUNNY   82  65  56 CALM      30.03F
VERNON         NOT AVBL
BRECKENRIDGE   NOT AVBL
COMANCHE       NOT AVBL
$$

CENTRAL AND SOUTH CENTRAL TEXAS

CITY           SKY/WX    TMP DP  RH WIND       PRES   REMARKS
AUSTIN/BERGSTM MOSUNNY   89  65  44 N14G21    29.95F
WACO           CLOUDY    82  65  56 N12       30.00S
HILLSBORO      NOT AVBL
TEMPLE         CLOUDY    81  63  54 N9        29.99S
KILLEEN-GRAY   PTSUNNY   82  64  54 NE8       30.01S
FORT HOOD      CLOUDY    84  65  52 N7        30.01S
GEORGETOWN     CLOUDY    84  64  51 N10       29.99F
LAGO VISTA     NOT AVBL
SAN MARCOS     SUNNY     91  63  38 N15       29.96S
NEW BRAUNFELS  MOSUNNY   93  62  35 NE9       29.92F
RANDOLPH AFB   MOSUNNY   93  63  37 NE14      29.93F
SAN ANTONIO    PTSUNNY   93  65  39 N10       29.94F
STINSON        MOSUNNY   94  65  38 N6        29.91F
PLEASANTON     NOT AVBL
LA GRANGE      NOT AVBL
GIDDINGS       NOT AVBL
$$

EAST TEXAS

CITY           SKY/WX    TMP DP  RH WIND       PRES   REMARKS
PARIS          CLOUDY    73  64  73 NE7       30.04S
CLARKSVILLE    NOT AVBL
TYLER          CLOUDY    75  67  76 N5        30.00F
LONGVIEW       CLOUDY    73  67  81 N3        29.99F
PALESTINE      NOT AVBL
NACOGDOCHES    CLOUDY    72  70  94 N8        29.99S
$$

TEXAS HILL COUNTRY AND EDWARDS PLATEAU

CITY           SKY/WX    TMP DP  RH WIND       PRES   REMARKS
LLANO          PTCLDY    90  61  37 NE8       30.02S
HORSESHOE BAY  NOT AVBL
KERRVILLE      NOT AVBL
FREDERICKSBRG  NOT AVBL
ROCKSPRINGS    PTCLDY    90  57  33 CALM      30.03F
HONDO          MOSUNNY   94  67  41 NE12      29.94F
UVALDE         NOT AVBL
DEL RIO        MOSUNNY   94  64  37 CALM      29.92F
$$

SOUTHEAST TEXAS

CITY           SKY/WX    TMP DP  RH WIND       PRES   REMARKS
COLLEGE STN    MOSUNNY   81  69  67 N13       29.98R
CALDWELL       PTCLDY    82  68  61 N7        30.00S
CROCKETT       CLOUDY    77  72  83 N3        30.01S
BRENHAM        MOSUNNY   85  66  53 N9G17     29.95F
HUNTSVILLE     CLOUDY    78  68  71 N8        29.98S
CONROE         MOSUNNY   83  69  62 N12       29.96S
HOUSTON BUSH   PTSUNNY   86  69  56 N9        29.93F
HOUSTON HOBBY  PTSUNNY   87  68  52 NW8       29.91F
PERLAND        CLOUDY    87  70  56 NW9       29.93F
WHARTON        NOT AVBL
$$

THE UPPER TEXAS COAST

CITY           SKY/WX    TMP DP  RH WIND       PRES   REMARKS
ORANGE         NOT AVBL
PORT ARTHUR    CLOUDY    84  73  69 NW8       29.91S
GALVESTON      CLOUDY    87  74  64 SW13      29.91F
ANGLETON       LGT RAIN  81  77  88 W3        29.92F
BAY CITY       NOT AVBL
$$

TEXAS COASTAL BEND, RIO GRANDE PLAINS DEEP SOUTH TEXAS

CITY           SKY/WX    TMP DP  RH WIND       PRES   REMARKS
VICTORIA       CLOUDY    94  72  48 NE6       29.90S
BEEVILLE       NOT AVBL
ROCKPORT       PTSUNNY   86  76  71 SE12      29.88F
PORT ARANSAS   NOT AVBL
PORT LAVACA    NOT AVBL
CORPUS CHRISTI CLOUDY    92  74  55 SE17      29.88F
KINGSVILLE NAS PTSUNNY   94  78  60 SE17      29.87F
COTULLA        MOSUNNY   98  63  31 NE7G18    29.88F
LAREDO         MOSUNNY  102  66  30 NE9       29.87F
BROWNSVILLE    MOSUNNY   92  74  55 SE15G23   29.88F
PORT ISABEL    SUNNY     89  76  65 SE18      29.88S
HEBBRONVILLE   MOCLDY    98  62  30 E13       29.87F
MCALLEN        MOSUNNY   99  71  40 E15       29.84F
WESLACO        NOT AVBL
FALFURRIAS     NOT AVBL
EDINBURG       NOT AVBL
$$


USA.gov is the U.S. government's official web portal to all federal, state and local government web resources and services.